Year,Month,Day,Hour,Minute,Value (Times are PST for temperature in C)
2009,08,19,00,00,17.70
2009,08,19,00,01,17.70
2009,08,19,00,02,17.70
2009,08,19,00,03,17.70
2009,08,19,00,04,17.70
2009,08,19,00,05,17.70
2009,08,19,00,06,17.60
2009,08,19,00,07,17.60
2009,08,19,00,08,17.60
2009,08,19,00,09,17.60
2009,08,19,00,10,17.60
2009,08,19,00,11,17.60
2009,08,19,00,12,17.60
2009,08,19,00,13,17.60
2009,08,19,00,14,17.60
2009,08,19,00,15,17.60
2009,08,19,00,16,17.60
2009,08,19,00,17,17.60
2009,08,19,00,18,17.60
2009,08,19,00,19,17.60
2009,08,19,07,06,14.30
2009,08,19,07,07,14.40
2009,08,19,07,08,14.40
2009,08,19,07,09,14.40
2009,08,19,07,10,14.40
2009,08,19,07,11,14.40
2009,08,19,07,12,14.50
2009,08,19,07,13,14.50
2009,08,19,07,14,14.50
2009,08,19,07,15,14.60
2009,08,19,07,16,14.70
2009,08,19,07,17,14.70
2009,08,19,07,18,14.70
2009,08,19,07,19,14.80
2009,08,19,07,20,14.80
2009,08,19,07,21,14.80
2009,08,19,07,22,14.80
2009,08,19,07,23,14.80
2009,08,19,07,24,14.90
2009,08,19,07,25,14.90
2009,08,19,07,26,14.90
2009,08,19,07,27,14.90
2009,08,19,07,28,15.00
2009,08,19,07,29,15.00
2009,08,19,07,30,15.00
2009,08,19,07,31,15.10
2009,08,19,07,32,15.10
2009,08,19,07,33,15.20
2009,08,19,07,34,15.30
2009,08,19,07,35,15.30
2009,08,19,07,36,15.40
2009,08,19,07,37,15.50
2009,08,19,07,38,15.60
2009,08,19,07,39,15.60
2009,08,19,07,40,15.80
2009,08,19,07,41,15.80
2009,08,19,07,42,15.80
2009,08,19,07,43,15.80
2009,08,19,07,44,15.90
2009,08,19,07,45,15.90
2009,08,19,07,46,16.10
2009,08,19,07,47,16.10
2009,08,19,07,48,16.10
2009,08,19,07,49,16.20
2009,08,19,07,50,16.20
2009,08,19,07,51,16.30
2009,08,19,07,52,16.30
2009,08,19,07,53,16.40
2009,08,19,07,54,16.40
2009,08,19,07,55,16.40
2009,08,19,07,56,16.50
2009,08,19,07,57,16.60
2009,08,19,07,58,16.70
2009,08,19,07,59,16.80
2009,08,19,08,00,16.90
2009,08,19,08,01,16.90
2009,08,19,08,02,17.00
2009,08,19,08,03,17.00
2009,08,19,08,04,17.10
2009,08,19,08,05,17.20
2009,08,19,08,06,17.20
2009,08,19,08,07,17.30
2009,08,19,08,08,17.30
2009,08,19,08,09,17.30
2009,08,19,08,10,17.40
2009,08,19,08,11,17.50
2009,08,19,08,12,17.60
2009,08,19,08,13,17.70
2009,08,19,08,14,17.70
2009,08,19,08,15,17.80
2009,08,19,08,16,17.90
2009,08,19,08,17,17.90
2009,08,19,08,18,18.00
2009,08,19,08,19,18.10
2009,08,19,08,20,18.20
2009,08,19,08,21,18.30
2009,08,19,08,22,18.30
2009,08,19,08,23,18.40
2009,08,19,08,24,18.50
2009,08,19,08,25,18.60
2009,08,19,08,26,18.60
2009,08,19,08,27,18.70
2009,08,19,08,28,18.80
2009,08,19,08,29,18.90
2009,08,19,08,30,19.00
2009,08,19,08,31,19.10
2009,08,19,08,32,19.10
2009,08,19,08,33,19.30
2009,08,19,08,34,19.40
2009,08,19,08,35,19.50
2009,08,19,08,36,19.60
2009,08,19,08,37,19.70
2009,08,19,08,38,19.80
2009,08,19,08,39,19.80
2009,08,19,08,40,19.90
2009,08,19,08,41,19.90
2009,08,19,08,42,20.00
2009,08,19,08,43,20.10
2009,08,19,08,44,20.20
2009,08,19,08,45,20.20
2009,08,19,08,46,20.20
2009,08,19,08,47,20.30
2009,08,19,08,48,20.40
2009,08,19,08,49,20.40
2009,08,19,08,50,20.50
2009,08,19,08,51,20.50
2009,08,19,08,52,20.60
2009,08,19,08,53,20.60
2009,08,19,08,54,20.70
2009,08,19,08,55,20.70
2009,08,19,08,56,20.80
2009,08,19,08,57,20.80
2009,08,19,08,58,20.90
2009,08,19,08,59,20.90
2009,08,19,09,00,20.90
2009,08,19,09,01,21.00
2009,08,19,09,02,21.10
2009,08,19,09,03,21.20
2009,08,19,09,04,21.30
2009,08,19,09,05,21.30
2009,08,19,09,06,21.40
2009,08,19,09,07,21.50
2009,08,19,09,08,21.60
2009,08,19,09,09,21.60
2009,08,19,09,10,21.70
2009,08,19,09,11,21.70
2009,08,19,09,12,21.80
2009,08,19,09,13,21.80
2009,08,19,09,14,21.80
2009,08,19,09,15,21.90
2009,08,19,09,16,21.90
2009,08,19,09,17,21.90
2009,08,19,09,18,21.90
2009,08,19,09,19,22.00
2009,08,19,09,20,22.00
2009,08,19,09,21,22.00
2009,08,19,09,22,22.00
2009,08,19,09,23,22.10
2009,08,19,09,24,22.10
2009,08,19,09,25,22.20
2009,08,19,09,26,22.20
2009,08,19,09,27,22.30
2009,08,19,09,28,22.30
2009,08,19,09,29,22.30
2009,08,19,09,30,22.40
2009,08,19,09,31,22.40
2009,08,19,09,32,22.40
2009,08,19,09,33,22.50
2009,08,19,09,34,22.50
2009,08,19,09,35,22.60
2009,08,19,09,36,22.60
2009,08,19,09,37,22.60
2009,08,19,09,38,22.70
2009,08,19,09,39,22.70
2009,08,19,09,40,22.70
2009,08,19,09,41,22.70
2009,08,19,09,42,22.80
2009,08,19,09,43,22.80
2009,08,19,09,44,22.80
2009,08,19,09,45,22.50
2009,08,19,09,46,22.10
2009,08,19,09,47,21.80
2009,08,19,09,48,21.50
2009,08,19,09,49,21.30
2009,08,19,09,50,21.00
2009,08,19,09,51,20.70
2009,08,19,09,52,20.40
2009,08,19,09,53,20.20
2009,08,19,09,54,20.10
2009,08,19,09,55,20.00
2009,08,19,09,56,19.90
2009,08,19,09,57,19.90
2009,08,19,09,58,19.90
2009,08,19,09,59,19.90
2009,08,19,10,00,19.90
2009,08,19,10,01,19.80
2009,08,19,10,02,19.80
2009,08,19,10,03,19.80
2009,08,19,10,04,19.80
2009,08,19,10,05,19.80
2009,08,19,10,06,19.70
2009,08,19,10,07,19.60
2009,08,19,10,08,19.40
2009,08,19,10,09,19.20
2009,08,19,10,10,19.00
2009,08,19,10,11,18.80
2009,08,19,10,12,18.60
2009,08,19,10,13,18.50
2009,08,19,10,14,18.40
2009,08,19,10,15,18.30
2009,08,19,10,16,18.30
2009,08,19,10,17,18.30
2009,08,19,10,18,18.30
2009,08,19,10,19,18.30
2009,08,19,10,20,18.40
2009,08,19,10,21,18.40
2009,08,19,10,22,18.50
2009,08,19,10,23,18.60
2009,08,19,10,24,18.70
2009,08,19,10,25,18.80
2009,08,19,10,26,18.90
2009,08,19,10,27,18.90
2009,08,19,10,28,19.00
2009,08,19,10,29,19.10
2009,08,19,10,30,19.10
2009,08,19,10,31,19.10
2009,08,19,10,32,19.20
2009,08,19,10,33,19.30
2009,08,19,10,34,19.40
2009,08,19,10,35,19.60
2009,08,19,10,36,19.60
2009,08,19,10,37,19.70
2009,08,19,10,38,19.80
2009,08,19,10,39,19.90
2009,08,19,10,40,20.00
2009,08,19,10,41,20.10
2009,08,19,10,42,20.10
2009,08,19,10,43,20.20
2009,08,19,10,44,20.20
2009,08,19,10,45,20.20
2009,08,19,10,46,20.20
2009,08,19,10,47,20.20
2009,08,19,10,48,20.20
2009,08,19,10,49,20.30
2009,08,19,10,50,20.30
2009,08,19,10,51,20.30
2009,08,19,10,52,20.30
2009,08,19,10,53,20.40
2009,08,19,10,54,20.40
2009,08,19,10,55,20.50
2009,08,19,10,56,20.60
2009,08,19,10,57,20.70
2009,08,19,10,58,20.80
2009,08,19,10,59,21.00
2009,08,19,11,00,21.00
2009,08,19,11,01,21.10
2009,08,19,11,02,21.20
2009,08,19,11,03,21.30
2009,08,19,11,04,21.40
2009,08,19,11,05,21.40
2009,08,19,11,06,21.40
2009,08,19,11,07,21.40
2009,08,19,11,08,21.40
2009,08,19,11,09,21.30
2009,08,19,11,10,21.20
2009,08,19,11,11,21.10
2009,08,19,11,12,21.10
2009,08,19,11,13,21.10
2009,08,19,11,14,21.10
2009,08,19,11,15,21.10
2009,08,19,11,16,21.10
2009,08,19,11,17,21.20
2009,08,19,11,18,21.10
2009,08,19,11,19,20.90
2009,08,19,11,20,20.80
2009,08,19,11,21,20.60
2009,08,19,11,22,20.40
2009,08,19,11,23,20.20
2009,08,19,11,24,20.10
2009,08,19,11,25,19.90
2009,08,19,11,26,19.80
2009,08,19,11,27,19.70
2009,08,19,11,28,19.70
2009,08,19,11,29,19.80
2009,08,19,11,30,19.90
2009,08,19,11,31,20.00
2009,08,19,11,32,20.10
2009,08,19,11,33,20.10
2009,08,19,11,34,20.20
2009,08,19,11,35,20.30
2009,08,19,11,36,20.40
2009,08,19,11,37,20.50
2009,08,19,11,38,20.70
2009,08,19,11,39,20.80
2009,08,19,11,40,20.90
2009,08,19,11,41,21.00
2009,08,19,11,42,21.10
2009,08,19,11,43,21.30
2009,08,19,11,44,21.60
2009,08,19,11,45,21.80
2009,08,19,11,46,21.90
2009,08,19,11,47,22.00
2009,08,19,11,48,22.20
2009,08,19,11,49,22.30
2009,08,19,11,50,22.40
2009,08,19,11,51,22.40
2009,08,19,11,52,22.40
2009,08,19,11,53,22.50
2009,08,19,11,54,22.60
2009,08,19,11,55,22.70
2009,08,19,11,56,22.80
2009,08,19,11,57,23.00
2009,08,19,11,58,23.20
2009,08,19,11,59,23.40
2009,08,19,12,00,23.60
2009,08,19,12,01,23.70
2009,08,19,12,02,23.90
2009,08,19,12,03,24.00
2009,08,19,12,04,24.10
2009,08,19,12,05,24.20
2009,08,19,12,06,24.40
2009,08,19,12,07,24.40
2009,08,19,12,08,24.50
2009,08,19,12,09,24.50
2009,08,19,12,10,24.60
2009,08,19,12,11,24.60
2009,08,19,12,12,24.70
2009,08,19,12,13,24.70
2009,08,19,12,14,24.70
2009,08,19,12,15,24.80
2009,08,19,12,16,24.80
2009,08,19,12,17,24.80
2009,08,19,12,18,24.80
2009,08,19,12,19,24.90
2009,08,19,12,20,24.90
2009,08,19,12,21,24.90
2009,08,19,12,22,24.90
2009,08,19,12,23,24.80
2009,08,19,12,24,24.80
2009,08,19,12,25,24.70
2009,08,19,12,26,24.70
2009,08,19,12,27,24.70
2009,08,19,12,28,24.70
2009,08,19,12,29,24.80
2009,08,19,12,30,24.80
2009,08,19,12,31,24.90
2009,08,19,12,32,25.00
2009,08,19,12,33,25.00
2009,08,19,12,34,25.10
2009,08,19,12,35,24.70
2009,08,19,12,36,24.00
2009,08,19,12,37,23.40
2009,08,19,12,38,22.80
2009,08,19,12,39,22.50
2009,08,19,12,40,22.20
2009,08,19,12,41,22.10
2009,08,19,12,42,22.00
2009,08,19,12,43,22.00
2009,08,19,12,44,22.10
2009,08,19,12,45,22.30
2009,08,19,12,46,22.50
2009,08,19,12,47,22.60
2009,08,19,12,48,22.70
2009,08,19,12,49,22.80
2009,08,19,12,50,22.90
2009,08,19,12,51,23.10
2009,08,19,12,52,23.30
2009,08,19,12,53,23.60
2009,08,19,12,54,23.70
2009,08,19,12,55,23.80
2009,08,19,12,56,23.90
2009,08,19,12,57,23.90
2009,08,19,12,58,24.00
2009,08,19,12,59,24.10
2009,08,19,13,00,24.40
2009,08,19,13,01,24.50
2009,08,19,13,02,24.70
2009,08,19,13,03,24.80
2009,08,19,13,04,24.90
2009,08,19,13,05,24.90
2009,08,19,13,06,25.00
2009,08,19,13,07,24.90
2009,08,19,13,08,24.50
2009,08,19,13,09,24.00
2009,08,19,13,10,23.50
2009,08,19,13,11,23.10
2009,08,19,13,12,22.80
2009,08,19,13,13,22.60
2009,08,19,13,14,22.50
2009,08,19,13,15,22.40
2009,08,19,13,16,22.40
2009,08,19,13,17,22.60
2009,08,19,13,18,22.80
2009,08,19,13,19,22.90
2009,08,19,13,20,23.00
2009,08,19,13,21,23.10
2009,08,19,13,22,23.20
2009,08,19,13,23,23.00
2009,08,19,13,24,22.90
2009,08,19,13,25,22.90
2009,08,19,13,26,22.90
2009,08,19,13,27,22.80
2009,08,19,13,28,22.70
2009,08,19,13,29,22.30
2009,08,19,13,30,22.10
2009,08,19,13,31,21.90
2009,08,19,13,32,21.80
2009,08,19,13,33,21.60
2009,08,19,13,34,21.60
2009,08,19,13,35,21.60
2009,08,19,13,36,21.60
2009,08,19,13,37,21.60
2009,08,19,13,38,21.60
2009,08,19,13,39,21.50
2009,08,19,13,40,21.40
2009,08,19,13,41,21.30
2009,08,19,13,42,21.10
2009,08,19,13,43,21.10
2009,08,19,13,44,21.10
2009,08,19,13,45,21.20
2009,08,19,13,46,21.10
2009,08,19,13,47,21.20
2009,08,19,13,48,21.30
2009,08,19,13,49,21.50
2009,08,19,13,50,21.60
2009,08,19,13,51,21.70
2009,08,19,13,52,21.90
2009,08,19,13,53,22.00
2009,08,19,13,54,22.10
2009,08,19,13,55,22.20
2009,08,19,13,56,22.30
2009,08,19,13,57,22.40
2009,08,19,13,58,22.50
2009,08,19,13,59,22.60
2009,08,19,14,00,22.80
2009,08,19,14,01,22.90
2009,08,19,14,02,22.90
2009,08,19,14,03,22.90
2009,08,19,14,04,22.90
2009,08,19,14,05,22.90
2009,08,19,14,06,22.90
2009,08,19,14,07,23.00
2009,08,19,14,08,23.00
2009,08,19,14,09,23.00
2009,08,19,14,10,23.10
2009,08,19,14,11,23.10
2009,08,19,14,12,23.00
2009,08,19,14,13,22.80
2009,08,19,14,14,22.80
2009,08,19,14,15,22.90
2009,08,19,14,16,22.90
2009,08,19,14,17,22.90
2009,08,19,14,18,22.80
2009,08,19,14,19,22.80
2009,08,19,14,20,22.80
2009,08,19,14,21,22.90
2009,08,19,14,22,23.10
2009,08,19,14,23,23.00
2009,08,19,14,24,22.90
2009,08,19,14,25,22.80
2009,08,19,14,26,22.80
2009,08,19,14,27,22.90
2009,08,19,14,28,22.90
2009,08,19,14,29,23.00
2009,08,19,14,30,23.20
2009,08,19,14,31,23.10
2009,08,19,14,32,23.00
2009,08,19,14,33,22.90
2009,08,19,14,34,22.90
2009,08,19,14,35,22.70
2009,08,19,14,36,22.60
2009,08,19,14,37,22.40
2009,08,19,14,38,22.40
2009,08,19,14,39,22.50
2009,08,19,14,40,22.50
2009,08,19,14,41,22.40
2009,08,19,14,42,22.30
2009,08,19,14,43,22.20
2009,08,19,14,44,22.20
2009,08,19,14,45,22.20
2009,08,19,14,46,22.10
2009,08,19,14,47,22.00
2009,08,19,14,48,22.00
2009,08,19,14,49,21.90
2009,08,19,14,50,21.80
2009,08,19,14,51,21.70
2009,08,19,14,52,21.60
2009,08,19,14,53,21.60
2009,08,19,14,54,21.50
2009,08,19,14,55,21.40
2009,08,19,14,56,21.30
2009,08,19,14,57,21.30
2009,08,19,14,58,21.30
2009,08,19,14,59,21.20
2009,08,19,15,00,21.20
2009,08,19,15,01,21.20
2009,08,19,15,02,21.30
2009,08,19,15,03,21.30
2009,08,19,15,04,21.30
2009,08,19,15,05,21.40
2009,08,19,15,06,21.60
2009,08,19,15,07,21.70
2009,08,19,15,08,21.80
2009,08,19,15,09,21.90
2009,08,19,15,10,21.90
2009,08,19,15,11,21.90
2009,08,19,15,12,22.00
2009,08,19,15,13,22.10
2009,08,19,15,14,22.10
2009,08,19,15,15,22.10
2009,08,19,15,16,22.10
2009,08,19,15,17,22.00
2009,08,19,15,18,22.00
2009,08,19,15,19,22.10
2009,08,19,15,20,22.10
2009,08,19,15,21,22.20
2009,08,19,15,22,22.20
2009,08,19,15,23,22.30
2009,08,19,15,24,22.40
2009,08,19,15,25,22.40
2009,08,19,15,26,22.20
2009,08,19,15,27,22.20
2009,08,19,15,28,22.20
2009,08,19,15,29,22.20
2009,08,19,15,30,22.20
2009,08,19,15,31,22.20
2009,08,19,15,32,22.20
2009,08,19,15,33,22.10
2009,08,19,15,34,22.00
2009,08,19,15,35,22.10
2009,08,19,15,36,22.20
2009,08,19,15,37,22.20
2009,08,19,15,38,22.10
2009,08,19,15,39,22.00
2009,08,19,15,40,22.00
2009,08,19,15,41,22.00
2009,08,19,15,42,22.00
2009,08,19,15,43,22.10
2009,08,19,15,44,22.20
2009,08,19,15,45,22.20
2009,08,19,15,46,22.10
2009,08,19,15,47,22.00
2009,08,19,15,48,21.90
2009,08,19,15,49,21.80
2009,08,19,15,50,21.80
2009,08,19,15,51,21.80
2009,08,19,15,52,21.90
2009,08,19,15,53,22.00
2009,08,19,15,54,22.10
2009,08,19,15,55,22.10
2009,08,19,15,56,22.00
2009,08,19,15,57,21.90
2009,08,19,15,58,21.80
2009,08,19,15,59,21.70
2009,08,19,16,00,21.70
2009,08,19,16,01,21.70
2009,08,19,16,02,21.80
2009,08,19,16,03,21.90
2009,08,19,16,04,21.90
2009,08,19,16,05,21.90
2009,08,19,16,06,21.90
2009,08,19,16,07,21.80
2009,08,19,16,08,21.70
2009,08,19,16,09,21.70
2009,08,19,16,10,21.70
2009,08,19,16,11,21.70
2009,08,19,16,12,21.70
2009,08,19,16,13,21.70
2009,08,19,16,14,21.80
2009,08,19,16,15,21.90
2009,08,19,16,16,22.00
2009,08,19,16,17,22.10
2009,08,19,16,18,22.20
2009,08,19,16,19,22.20
2009,08,19,16,20,22.30
2009,08,19,16,21,22.30
2009,08,19,16,22,22.20
2009,08,19,16,23,22.30
2009,08,19,16,24,22.30
2009,08,19,16,25,22.30
2009,08,19,16,26,22.40
2009,08,19,16,27,22.50
2009,08,19,16,28,22.60
2009,08,19,16,29,22.70
2009,08,19,16,30,22.70
2009,08,19,16,31,22.70
2009,08,19,16,32,22.70
2009,08,19,16,33,22.70
2009,08,19,16,34,22.80
2009,08,19,16,35,22.80
2009,08,19,16,36,22.90
2009,08,19,16,37,23.00
2009,08,19,16,38,23.10
2009,08,19,16,39,23.10
2009,08,19,16,40,23.10
2009,08,19,16,41,23.10
2009,08,19,16,42,23.20
2009,08,19,16,43,23.20
2009,08,19,16,44,23.10
2009,08,19,16,45,23.10
2009,08,19,16,46,23.10
2009,08,19,16,47,23.20
2009,08,19,16,48,23.20
2009,08,19,16,49,23.30
2009,08,19,16,50,23.40
2009,08,19,16,51,23.60
2009,08,19,16,52,23.70
2009,08,19,16,53,23.70
2009,08,19,16,54,23.70
2009,08,19,16,55,23.70
2009,08,19,16,56,23.70
2009,08,19,16,57,23.70
2009,08,19,16,58,23.50
2009,08,19,16,59,23.40
2009,08,19,17,00,23.30
2009,08,19,17,01,23.30
2009,08,19,17,02,23.10
2009,08,19,17,03,23.10
2009,08,19,17,04,23.10
2009,08,19,17,05,23.00
2009,08,19,17,06,22.90
2009,08,19,17,07,22.80
2009,08,19,17,08,22.80
2009,08,19,17,09,22.70
2009,08,19,17,10,22.70
2009,08,19,17,11,22.60
2009,08,19,17,12,22.70
2009,08,19,17,13,22.80
2009,08,19,17,14,23.00
2009,08,19,17,15,23.20
2009,08,19,17,16,23.40
2009,08,19,17,17,23.60
2009,08,19,17,18,23.70
2009,08,19,17,19,23.90
2009,08,19,17,20,24.00
2009,08,19,17,21,24.10
2009,08,19,17,22,24.10
2009,08,19,17,23,24.10
2009,08,19,17,24,24.10
2009,08,19,17,25,24.10
2009,08,19,17,26,24.10
2009,08,19,17,27,23.90
2009,08,19,17,28,23.80
2009,08,19,17,29,23.70
2009,08,19,17,30,23.70
2009,08,19,17,31,23.70
2009,08,19,17,32,23.70
2009,08,19,17,33,23.70
2009,08,19,17,34,23.70
2009,08,19,17,35,23.70
2009,08,19,17,36,23.70
2009,08,19,17,37,23.70
2009,08,19,17,38,23.70
2009,08,19,17,39,23.60
2009,08,19,17,40,23.60
2009,08,19,17,41,23.50
2009,08,19,17,42,23.50
2009,08,19,17,43,23.60
2009,08,19,17,44,23.60
2009,08,19,17,45,23.50
2009,08,19,17,46,23.40
2009,08,19,17,47,23.30
2009,08,19,17,48,23.40
2009,08,19,17,49,23.50
2009,08,19,17,50,23.60
2009,08,19,17,51,23.70
2009,08,19,17,52,23.70
2009,08,19,17,53,23.50
2009,08,19,17,54,23.40
2009,08,19,17,55,23.30
2009,08,19,17,56,23.30
2009,08,19,17,57,23.30
2009,08,19,17,58,23.20
2009,08,19,17,59,23.20
2009,08,19,18,00,23.30
2009,08,19,18,01,23.40
2009,08,19,18,02,23.50
2009,08,19,18,03,23.60
2009,08,19,18,04,23.60
2009,08,19,18,05,23.60
2009,08,19,18,06,23.60
2009,08,19,18,07,23.70
2009,08,19,18,08,23.70
2009,08,19,18,09,23.70
2009,08,19,18,10,23.70
2009,08,19,18,11,23.70
2009,08,19,18,12,23.70
2009,08,19,18,13,23.70
2009,08,19,18,14,23.70
2009,08,19,18,15,23.70
2009,08,19,18,16,23.70
2009,08,19,18,17,23.70
2009,08,19,18,18,23.70
2009,08,19,18,19,23.70
2009,08,19,18,20,23.70
2009,08,19,18,21,23.70
2009,08,19,18,22,23.70
2009,08,19,18,23,23.70
2009,08,19,18,24,23.70
2009,08,19,18,25,23.80
2009,08,19,18,26,23.80
2009,08,19,18,27,23.90
2009,08,19,18,28,23.90
2009,08,19,18,29,23.90
2009,08,19,18,30,23.90
2009,08,19,18,31,23.90
2009,08,19,18,32,23.90
2009,08,19,18,33,23.80
2009,08,19,18,34,23.80
2009,08,19,18,35,23.70
2009,08,19,18,36,23.70
2009,08,19,18,37,23.70
2009,08,19,18,38,23.70
2009,08,19,18,39,23.70
2009,08,19,18,40,23.70
2009,08,19,18,41,23.70
2009,08,19,18,42,23.70
2009,08,19,18,43,23.70
2009,08,19,18,44,23.70
2009,08,19,18,45,23.70
2009,08,19,18,46,23.60
2009,08,19,18,47,23.60
2009,08,19,18,48,23.70
2009,08,19,18,49,23.70
2009,08,19,18,50,23.70
2009,08,19,18,51,23.70
2009,08,19,18,52,23.70
2009,08,19,18,53,23.70
2009,08,19,18,54,23.70
2009,08,19,18,55,23.60
2009,08,19,18,56,23.60
2009,08,19,18,57,23.50
2009,08,19,18,58,23.40
2009,08,19,18,59,23.40
2009,08,19,19,00,23.40
2009,08,19,19,01,23.50
2009,08,19,19,02,23.50
2009,08,19,19,03,23.40
2009,08,19,19,04,23.40
2009,08,19,19,05,23.40
2009,08,19,19,06,23.40
2009,08,19,19,07,23.30
2009,08,19,19,08,23.30
2009,08,19,19,09,23.30
2009,08,19,19,10,23.30
2009,08,19,19,11,23.30
2009,08,19,19,12,23.30
2009,08,19,19,13,23.30
2009,08,19,19,14,23.30
2009,08,19,19,15,23.30
2009,08,19,19,16,23.30
2009,08,19,19,17,23.30
2009,08,19,19,18,23.30
2009,08,19,19,19,23.30
2009,08,19,19,20,23.30
2009,08,19,19,21,23.40
2009,08,19,19,22,23.30
2009,08,19,19,23,23.30
2009,08,19,19,24,23.30
2009,08,19,19,25,23.30
2009,08,19,19,26,23.30
2009,08,19,19,27,23.30
2009,08,19,19,28,23.30
2009,08,19,19,29,23.30
2009,08,19,19,30,23.30
2009,08,19,19,31,23.30
2009,08,19,19,32,23.30
2009,08,19,19,33,23.30
2009,08,19,19,34,23.30
2009,08,19,19,35,23.30
2009,08,19,19,36,23.20
2009,08,19,19,37,23.20
2009,08,19,19,38,23.20
2009,08,19,19,39,23.10
2009,08,19,19,40,23.10
2009,08,19,19,41,23.10
2009,08,19,19,42,23.10
2009,08,19,19,43,23.10
2009,08,19,19,44,23.10
2009,08,19,19,45,23.10
2009,08,19,19,46,23.10
2009,08,19,19,47,23.10
2009,08,19,19,48,23.10
2009,08,19,19,49,23.10
2009,08,19,19,50,23.10
2009,08,19,19,51,23.10
2009,08,19,19,52,23.10
2009,08,19,19,53,23.10
2009,08,19,19,54,23.10
2009,08,19,19,55,23.10
2009,08,19,19,56,23.20
2009,08,19,19,57,23.20
2009,08,19,19,58,23.20
2009,08,19,19,59,23.20
2009,08,19,20,00,23.20
2009,08,19,20,01,23.20
2009,08,19,20,02,23.20
2009,08,19,20,03,23.20
2009,08,19,20,04,23.20
2009,08,19,20,05,23.30
2009,08,19,20,06,23.30
2009,08,19,20,07,23.20
2009,08,19,20,08,23.20
2009,08,19,20,09,23.20
2009,08,19,20,10,23.10
2009,08,19,20,11,23.10
2009,08,19,20,12,23.10
2009,08,19,20,13,23.10
2009,08,19,20,14,23.10
2009,08,19,20,15,23.10
2009,08,19,20,16,23.10
2009,08,19,20,17,23.10
2009,08,19,20,18,23.10
2009,08,19,20,19,23.10
2009,08,19,20,20,23.10
2009,08,19,20,21,23.10
2009,08,19,20,22,23.10
2009,08,19,20,23,23.10
2009,08,19,20,24,23.10
2009,08,19,20,25,22.90
2009,08,19,20,26,22.90
2009,08,19,20,27,22.90
2009,08,19,20,28,22.90
2009,08,19,20,29,22.90
2009,08,19,20,30,22.80
2009,08,19,20,31,22.80
2009,08,19,20,32,22.70
2009,08,19,20,33,22.70
2009,08,19,20,34,22.60
2009,08,19,20,35,22.60
2009,08,19,20,36,22.60
2009,08,19,20,37,22.50
2009,08,19,20,38,22.40
2009,08,19,20,39,22.40
2009,08,19,20,40,22.40
2009,08,19,20,41,22.30
2009,08,19,20,42,22.30
2009,08,19,20,43,22.20
2009,08,19,20,44,22.10
2009,08,19,20,45,22.10
2009,08,19,20,46,22.00
2009,08,19,20,47,21.90
2009,08,19,20,48,21.90
2009,08,19,20,49,21.80
2009,08,19,20,50,21.80
2009,08,19,20,51,21.70
2009,08,19,20,52,21.60
2009,08,19,20,53,21.60
2009,08,19,20,54,21.60
2009,08,19,20,55,21.60
2009,08,19,20,56,21.60
2009,08,19,20,57,21.60
2009,08,19,20,58,21.60
2009,08,19,20,59,21.60
2009,08,19,21,00,21.60
2009,08,19,21,01,21.60
2009,08,19,21,02,21.60
2009,08,19,21,03,21.60
2009,08,19,21,04,21.50
2009,08,19,21,05,21.40
2009,08,19,21,06,21.40
2009,08,19,21,07,21.40
2009,08,19,21,08,21.40
2009,08,19,21,09,21.30
2009,08,19,21,10,21.30
2009,08,19,21,11,21.30
2009,08,19,21,12,21.30
2009,08,19,21,13,21.30
2009,08,19,21,14,21.30
2009,08,19,21,15,21.30
2009,08,19,21,16,21.30
2009,08,19,21,17,21.30
2009,08,19,21,18,21.30
2009,08,19,21,19,21.20
2009,08,19,21,20,21.20
2009,08,19,21,21,21.20
2009,08,19,21,22,21.20
2009,08,19,21,23,21.10
2009,08,19,21,24,21.10
2009,08,19,21,25,21.10
2009,08,19,21,26,21.10
2009,08,19,21,27,21.10
2009,08,19,21,28,21.00
2009,08,19,21,29,21.00
2009,08,19,21,30,21.00
2009,08,19,21,31,21.00
2009,08,19,21,32,21.00
2009,08,19,21,33,20.90
2009,08,19,21,34,20.90
2009,08,19,21,35,20.90
2009,08,19,21,36,20.80
2009,08,19,21,37,20.80
2009,08,19,21,38,20.80
2009,08,19,21,39,20.80
2009,08,19,21,40,20.70
2009,08,19,21,41,20.70
2009,08,19,21,42,20.70
2009,08,19,21,43,20.60
2009,08,19,21,44,20.60
2009,08,19,21,45,20.60
2009,08,19,21,46,20.60
2009,08,19,21,47,20.50
2009,08,19,21,48,20.50
2009,08,19,21,49,20.50
2009,08,19,21,50,20.50
2009,08,19,21,51,20.50
2009,08,19,21,52,20.40
2009,08,19,21,53,20.40
2009,08,19,21,54,20.40
2009,08,19,21,55,20.40
2009,08,19,21,56,20.40
2009,08,19,21,57,20.30
2009,08,19,21,58,20.30
2009,08,19,21,59,20.30
2009,08,19,22,00,20.30
2009,08,19,22,01,20.20
2009,08,19,22,02,20.20
2009,08,19,22,03,20.20
2009,08,19,22,04,20.20
2009,08,19,22,05,20.20
2009,08,19,22,06,20.20
2009,08,19,22,07,20.20
2009,08,19,22,08,20.20
2009,08,19,22,09,20.20
2009,08,19,22,10,20.20
2009,08,19,22,11,20.20
2009,08,19,22,12,20.20
2009,08,19,22,13,20.20
2009,08,19,22,14,20.20
2009,08,19,22,15,20.20
2009,08,19,22,16,20.20
2009,08,19,22,17,20.20
2009,08,19,22,18,20.20
2009,08,19,22,19,20.20
2009,08,19,22,20,20.10
2009,08,19,22,21,20.10
2009,08,19,22,22,20.10
2009,08,19,22,23,20.10
2009,08,19,22,24,20.10
2009,08,19,22,25,20.10
2009,08,19,22,26,20.10
2009,08,19,22,27,20.10
2009,08,19,22,28,20.00
2009,08,19,22,29,19.90
2009,08,19,22,30,19.90
2009,08,19,22,31,19.90
2009,08,19,22,32,19.90
2009,08,19,22,33,19.90
2009,08,19,22,34,19.90
2009,08,19,22,35,19.90
2009,08,19,22,36,19.90
2009,08,19,22,37,19.90
2009,08,19,22,38,19.90
2009,08,19,22,39,19.90
2009,08,19,22,40,19.90
2009,08,19,22,41,19.90
2009,08,19,22,42,19.90
2009,08,19,22,43,19.80
2009,08,19,22,44,19.80
2009,08,19,22,45,19.80
2009,08,19,22,46,19.80
2009,08,19,22,47,19.80
2009,08,19,22,48,19.80
2009,08,19,22,49,19.80
2009,08,19,22,50,19.70
2009,08,19,22,51,19.70
2009,08,19,22,52,19.70
2009,08,19,22,53,19.70
2009,08,19,22,54,19.70
2009,08,19,22,55,19.70
2009,08,19,22,56,19.70
2009,08,19,22,57,19.70
2009,08,19,22,58,19.60
2009,08,19,22,59,19.60
2009,08,19,23,00,19.60
2009,08,19,23,01,19.60
2009,08,19,23,02,19.50
2009,08,19,23,03,19.50
2009,08,19,23,04,19.50
2009,08,19,23,05,19.50
2009,08,19,23,06,19.50
2009,08,19,23,07,19.40
2009,08,19,23,08,19.40
2009,08,19,23,09,19.40
2009,08,19,23,10,19.40
2009,08,19,23,11,19.40
2009,08,19,23,12,19.30
2009,08,19,23,13,19.30
2009,08,19,23,14,19.30
2009,08,19,23,15,19.20
2009,08,19,23,16,19.20
2009,08,19,23,17,19.20
2009,08,19,23,18,19.20
2009,08,19,23,19,19.20
2009,08,19,23,20,19.20
2009,08,19,23,21,19.10
2009,08,19,23,22,19.10
2009,08,19,23,23,19.10
2009,08,19,23,24,19.10
2009,08,19,23,25,19.10
2009,08,19,23,26,19.10
2009,08,19,23,27,19.10
2009,08,19,23,28,19.10
2009,08,19,23,29,19.10
2009,08,19,23,30,19.10
2009,08,19,23,31,19.10
2009,08,19,23,32,19.10
2009,08,19,23,33,19.10
2009,08,19,23,34,19.10
2009,08,19,23,35,19.10
2009,08,19,23,36,19.10
2009,08,19,23,37,19.00
2009,08,19,23,38,18.90
2009,08,19,23,39,18.90
2009,08,19,23,40,18.90
2009,08,19,23,41,18.90
2009,08,19,23,42,18.90
2009,08,19,23,43,18.90
2009,08,19,23,44,18.90
2009,08,19,23,45,18.90
2009,08,19,23,46,18.90
2009,08,19,23,47,18.80
2009,08,19,23,48,18.80
2009,08,19,23,49,18.80
2009,08,19,23,50,18.80
2009,08,19,23,51,18.80
2009,08,19,23,52,18.80
2009,08,19,23,53,18.90
2009,08,19,23,54,18.90
2009,08,19,23,55,18.90
2009,08,19,23,56,18.90
2009,08,19,23,57,18.90
2009,08,19,23,58,18.90
2009,08,19,23,59,18.90
